CZ-6A DEB, 56661

Orbit data source: Space-Track

CZ-6A DEB, 56661 is space debris in SSO originally from a launch on Fri, 11 Nov 2022 UTC launched from the Taiyaun Space Center, China (TSC). Debris objects in space refer to the collection of defunct objects orbiting the Earth. Examples of debris include non-operational satellites, rocket bodies, and fragments generated from explosions, collisions, or faulty payload assembly.

Loading next visibility...
Identifier
56661, 2022-151AGM
Orbit
SSO
Country
Flag of CNCN / PRC
Related business
Manufacturer
SAST
Mission
Spacecraft
Bus & Motor
Unknown
Mass
Unknown
Launch date (UTC)
2022-11-11 (3 years ago)
Launch vehicle
Unknown
Launch site
Taiyaun Space Center, China (TSC)
Object type
Payload
Rocket body
Debris
Shape & HBR
Unknown shape, 0.1 m
Radar Cross Section
Small (<0.1 m²)

Expand to show TLE details & history
Last TLE update: 14 hours ago

TLE from 14 hours ago
0 CZ-6A DEB
1 56661U 22151AGM 25350.35634920  .00000705  00000-0  22554-3 0  9995
2 56661  98.7080  34.8640 0103016 108.8073 252.4322 14.39750482144058
Epoch: 2025-12-16T08:33Z
TLE epoch observation values (Epoch: 2025-12-16T08:33:08.570Z)
Latitude
-0.00007°
Longitude
-178.66343°
Altitude
785.148 km
Speed
7.449 km/s
True Right ascension
02h 19m 27s
True Declination
0° 00' 00"
Sunlit
Object was in full shadow at epoch
Visualization orbit readout
Latitude
Unknown
Longitude
Unknown
Altitude
Unknown
Speed
Unknown
Apparent Right ascension
Unknown
Apparent Declination
Unknown
Sunlit
N/A
Visualization observer readout
Local Sidereal Time
21:33:33
Azimuth
Unknown
Elevation
Unknown
Doppler factor
Unknown
Orbital elements
Apogee altitude
829.952 km
Perigee altitude
682.957 km
Semi-major axis
7,134.592 km
Eccentricity
0.0103
Inclination
98.708°
RAAN
34.864°
Arg. of periapsis
108.8073°
True anomaly
251.31121°
Mean anomaly
252.4322°
Eccentric anomaly
251.87126°
Mean motion
3.60155 °/min
Orbital period
99.96 mins
BSTAR
0.00022554
Loading maneuver chart data...
Computing Atmospheric mass density...
Loading historical data...
Loading historical data...
Loading historical data...
Loading historical data...
Loading historical data...
Loading historical data...
Loading historical data...

Documentation

Showing up to 5 results
|